Location: Philomena
(55.1756°N, 111.6233°W)
Time: 09:57:23
(UTC+00:00)

PCSat - Pass Details

Date: 07 December 2023
Orbit: 784 x 791 km, 67.0° (Epoch: 23 February)

Event Time Altitude Azimuth Distance (km) Brightness Sun altitude
Exits shadow 14:49:17 - 290° (WNW) 2,606 11.6 -6.4°
Reaches altitude 10° 14:50:06 10° 295° (WNW) 2,359 11.4 -6.3°
Maximum altitude 14:54:30 25° 350° (N) 1,569 10.8 -5.7°
Drops below altitude 10° 14:58:56 10° 44° (NE) 2,366 12.2 -5.2°
Sets 15:01:48 0° 58° (ENE) 3,297 13.1 -4.9°
